This is the latest recevied weather packets stored in our database for station/object EA1IDU-11. If no packets are shown the sender has not sent any weather packets the latest 1 day(s).
| Time | Temp. | Humidity | Pressure | Rain* | Wind** | Luminosity | Snow |
|---|---|---|---|---|---|---|---|
| 1777911181 | 18.89° C | 56% | 1020.9 hPa | - | - | - | - |
| 1777910281 | 18.89° C | 57% | 1020.8 hPa | - | - | - | - |
| 1777909381 | 18.33° C | 58% | 1020.8 hPa | - | - | - | - |
| 1777908481 | 17.78° C | 58% | 1021 hPa | - | - | - | - |
| 1777907581 | 16.67° C | 57% | 1021 hPa | - | - | - | - |
| 1777906681 | 15.56° C | 57% | 1020.9 hPa | - | - | - | - |
| 1777905781 | 14.44° C | 58% | 1021.2 hPa | - | - | - | - |
| 1777904881 | 14.44° C | 58% | 1021.5 hPa | - | - | - | - |
| 1777903980 | 14.44° C | 59% | 1021.6 hPa | - | - | - | - |
| 1777903080 | 14.44° C | 60% | 1021.7 hPa | - | - | - | - |
| 1777902180 | 13.33° C | 61% | 1022 hPa | - | - | - | - |
| 1777901280 | 13.33° C | 60% | 1022 hPa | - | - | - | - |
| 1777900380 | 13.33° C | 60% | 1021.9 hPa | - | - | - | - |
| 1777899480 | 12.78° C | 60% | 1021.9 hPa | - | - | - | - |
| 1777898580 | 12.22° C | 60% | 1022.1 hPa | - | - | - | - |
| 1777897680 | 11.67° C | 60% | 1022.1 hPa | - | - | - | - |
| 1777896780 | 11.67° C | 60% | 1022 hPa | - | - | - | - |
| 1777895880 | 11.67° C | 60% | 1022 hPa | - | - | - | - |
| 1777894979 | 11.67° C | 60% | 1022.1 hPa | - | - | - | - |
| 1777894079 | 11.67° C | 59% | 1022.2 hPa | - | - | - | - |
| 1777893179 | 12.22° C | 59% | 1022.2 hPa | - | - | - | - |
| 1777892279 | 12.22° C | 58% | 1022.3 hPa | - | - | - | - |
| 1777891379 | 12.78° C | 58% | 1022.3 hPa | - | - | - | - |
| 1777890479 | 12.78° C | 58% | 1022.1 hPa | - | - | - | - |
| 1777889579 | 12.78° C | 57% | 1022 hPa | - | - | - | - |
* Rain since midnight (hover to see other rain measurements)
** Current wind speed in m/s (hover to see current wind gust speed)